Location: WWIN Observatory
(34.8953°N, 91.9583°W)
Time: 03:46:52
(UTC-05:00)

Daily predictions for brighter satellites

Satellite Brightness Start Highest point End
(mag) Time Altitude Azimuth Time Altitude Azimuth Time Altitude Azimuth
Cosmos 2285 Rocket 3.9 00:01:12 10° NNW 00:07:34 79° ENE 00:07:34 79° ENE
Terra 3.7 00:10:53 22° W 00:10:53 22° W 00:14:04 10° NW
Cosmos 2034 Rocket 4.1 00:11:00 10° N 00:17:05 66° ENE 00:17:05 66° ENE
CZ-4C R/B 3.1 00:22:54 38° NE 00:22:54 38° NE 00:26:31 10° NE
ALOS 2 4.2 00:23:03 31° NNE 00:23:03 31° NNE 00:25:39 10° N
Cosmos 2263 Rocket 3.5 00:20:31 29° W 00:21:53 33° WNW 00:26:52 10° N
Cosmos 1891 Rocket 4.4 00:19:43 10° N 00:25:20 77° N 00:25:20 77° N
Cosmos 1464 Rocket 4.4 00:39:15 10° NNW 00:44:51 50° W 00:44:51 50° W
Cosmos 1634 Rocket 4.5 00:50:30 10° N 00:56:07 51° ENE 00:56:07 51° ENE
Cosmos 1844 Rocket 3.1 00:57:52 57° N 00:57:52 57° N 01:02:16 10° NNE
CZ-2C R/B 4.1 01:09:06 44° WNW 01:09:06 44° WNW 01:13:36 10° NNW
Tsikada Rocket 4.5 01:08:12 52° WNW 01:08:12 52° WNW 01:14:16 10° N
H-2A ROCKET BODY 4.4 01:01:51 10° WSW 01:09:42 68° S 02:08:35 10° ESE
CZ-2C R/B 4.4 01:33:25 10° NNW 01:37:14 21° WNW 01:37:20 21° WNW
Cosmos 2278 Rocket 2.5 01:45:15 63° N 01:45:15 63° N 01:49:58 10° NNE
H-2A R/B 4.1 01:40:59 10° NNE 01:43:43 36° NNE 01:43:43 36° NNE
Nadezhda 4 Rocket 4.4 01:50:39 51° E 01:50:42 51° E 01:56:47 10° NNE
Cosmos 2297 4.1 02:04:57 55° ENE 02:04:57 55° ENE 02:09:49 10° NNE
Cosmos 2279 Rocket 4.1 02:03:05 10° NNW 02:08:54 66° WNW 02:08:54 66° WNW
CZ-4C R/B 4.2 02:08:02 16° WNW 02:09:59 19° NW 02:14:06 10° N
Meteor 1-10 Rocket 4.3 02:08:02 10° N 02:13:33 79° NNE 02:13:33 79° NNE
Cosmos 1733 Rocket 4.3 02:19:01 38° NE 02:19:01 38° NE 02:22:03 10° NNE
BREEZE-M DEB (TANK) 3.9 02:18:10 62° SSE 02:18:35 64° SE 02:36:02 10° NE
Cosmos 1825 4.3 02:21:09 25° N 02:21:09 25° N 02:22:52 10° N
Cosmos 2082 Rocket 3.1 02:16:09 10° N 02:21:29 42° ENE 02:22:59 35° ESE
ADEOS Rocket 4.3 02:16:10 10° NNE 02:23:03 38° E 02:25:04 32° SE
ATLAS 3B R/B 2.9 02:28:26 60° SSE 02:29:25 66° ESE 02:36:38 10° NE
Cosmos 44 3.8 02:32:00 52° NNE 02:32:00 52° NNE 02:35:28 10° NNE
Cosmos 2112 Rocket 4.3 02:29:01 10° NNW 02:33:24 60° NW 02:33:24 60° NW
Cosmos 44 Rocket 3.8 02:41:11 51° NNW 02:41:11 51° NNW 02:45:19 10° NNE
Meteor 2-6 Rocket 4.4 02:36:23 10° NNW 02:41:19 57° WNW 02:41:19 57° WNW
Meteor 1-27 Rocket 3.7 02:36:55 10° N 02:42:53 87° E 02:43:19 78° SSE
Cosmos 1680 Rocket 4.4 02:42:03 10° NNW 02:45:44 38° WNW 02:45:44 38° WNW
AQUA 4.2 02:43:01 10° NNE 02:47:29 55° E 02:47:29 55° E
Helios 1A Rocket 4.1 02:44:36 10° N 02:47:25 39° NNW 02:47:25 39° NNW
Cosmos 1937 Rocket 3.4 02:49:53 83° N 02:49:53 83° N 02:54:52 10° NNE
Cosmos 1674 Rocket 4.0 02:46:58 10° N 02:50:50 60° NE 02:50:50 60° NE
Meteor 2-20 Rocket 4.3 02:51:48 68° S 02:52:40 85° E 02:58:52 10° N
Cosmos 1908 Rocket 3.9 02:58:20 60° ENE 02:58:20 60° ENE 03:02:26 10° NNE
Resurs 1-4 Rocket 3.0 02:53:57 10° NNE 02:58:56 40° E 03:00:04 36° SE
BREEZE-M DEB (TANK) 4.4 02:56:48 41° S 02:59:07 49° SE 03:03:34 10° ENE
COBE Rocket 4.1 02:56:24 10° NNE 03:01:11 61° E 03:01:30 59° ESE
Geosat 3.9 02:56:53 10° NNE 03:01:55 72° ESE 03:02:09 71° SE
Cosmos 1092 Rocket 4.1 03:01:33 55° WSW 03:02:16 58° W 03:08:27 10° N
BREEZE-M DEB (TANK) 4.1 03:04:04 21° ENE 03:04:04 21° ENE 03:05:34 10° NE
Meteor 2-20 4.5 03:02:17 57° WSW 03:02:57 60° W 03:09:02 10° N
Cosmos 1898 Rocket 4.0 03:03:10 44° WNW 03:03:10 44° WNW 03:08:12 10° N
Cosmos 990 Rocket 3.9 03:05:25 72° W 03:05:31 73° WNW 03:10:41 10° NNE
SeaSat 1 2.3 03:05:50 83° SW 03:05:55 84° WSW 03:10:52 10° NNW
Cosmos 1378 Rocket 3.8 03:08:45 10° N 03:13:03 62° E 03:13:18 61° ESE
IRS-1C 4.0 03:07:43 10° NNE 03:13:05 89° ESE 03:13:52 67° SSW
CZ-2D R/B 2.5 03:09:10 10° NNE 03:14:29 57° E 03:15:55 43° SSE
Delta 2 Rocket 4.0 03:15:57 53° SE 03:15:57 53° SE 03:19:40 10° ESE
Cosmos 2026 Rocket 3.8 03:13:40 58° SSW 03:14:54 80° W 03:20:59 10° N
SL-08 R/B 3.2 03:18:18 73° WSW 03:18:28 74° WSW 03:23:19 10° NNW
Cosmos 1340 4.3 03:16:08 10° NNW 03:18:02 25° NW 03:18:02 25° NW
ARIANE 5 R/B 2.9 03:14:51 10° NNE 03:19:45 56° E 03:20:57 44° SSE
Cosmos 1782 Rocket 3.7 03:20:21 60° SE 03:20:49 65° E 03:25:15 10° NNE
USA 238 DEB 3.7 03:18:44 48° SW 03:20:51 77° WNW 03:27:52 10° NNE
USA 238 3.7 03:18:50 48° SW 03:20:57 78° WNW 03:27:59 10° NNE
Spot 4 Rocket 4.1 03:17:05 10° NNE 03:22:14 74° ESE 03:23:21 54° SSE
CBERS-1 4.3 03:22:10 10° N 03:27:06 49° WNW 03:27:43 47° W
UNKNOWN OBJECT B 4.2 03:26:09 10° NE 03:29:22 28° E 03:30:08 25° ESE
IRS-1D 3.4 03:24:47 10° NNE 03:29:53 81° ESE 03:31:04 53° S
CZ-3A R/B 3.8 03:31:03 31° S 03:31:46 32° S 03:49:51 10° ESE
Meteor 1-20 Rocket 4.4 03:32:31 36° SSE 03:34:55 69° E 03:40:44 10° NNE
Cosmos 1943 Rocket 3.7 03:33:05 17° SSE 03:36:17 28° ESE 03:41:01 10° NE
Cosmos 724 4.5 03:34:55 41° S 03:37:09 73° ESE 03:43:19 10° NNE
Cosmos 2369 Rocket 2.5 03:36:24 36° SSE 03:38:32 58° ESE 03:44:03 10° NNE
NPP 4.4 03:34:56 10° N 03:39:47 35° WNW 03:40:50 32° W
Cosmos 1833 Rocket 3.1 03:35:12 10° NW 03:40:25 40° WSW 03:40:32 39° WSW
GP-B 4.1 03:38:13 10° NNW 03:41:55 31° WNW 03:41:55 31° WNW
Cosmos 1346 4.5 03:39:41 10° NNE 03:41:59 32° ENE 03:41:59 32° ENE
Cosmos 1655 Rocket 4.1 03:40:47 41° SW 03:42:51 61° W 03:49:03 10° N
UNK 3.6 03:42:47 48° S 03:44:02 78° W 03:48:44 10° NNW
Cosmos 1437 2.9 03:42:44 10° N 03:45:48 71° NE 03:45:48 71° NE
Cosmos 405 Rocket 4.2 03:43:43 10° N 03:47:22 35° ENE 03:50:19 14° SE
COSMOS 2455 3.8 03:44:20 22° SSE 03:47:37 40° ESE 03:53:10 10° NE
CZ-3B DEB 4.0 03:35:54 10° NW 03:49:15 87° NE 03:59:40 10° SE
SL-16 R/B 2.5 03:46:39 29° S 03:49:58 70° WSW 03:56:12 10° NNW
Cosmos 372 Rocket 4.1 03:49:53 36° S 03:52:01 74° ESE 03:57:13 10° NNE
Cosmos 1812 2.6 03:49:11 10° N 03:53:03 76° W 03:53:36 62° SSW
Cosmos 2151 Rocket 4.4 03:51:49 23° SSE 03:54:18 48° E 03:58:40 10° NNE
Cosmos 1975 Rocket 2.9 03:50:07 10° N 03:54:27 79° W 03:55:49 43° S
ADEOS II 4.2 03:50:37 10° NE 03:54:31 21° E 03:58:22 10° SE
USA 267 3.2 03:53:00 10° NE 03:59:33 85° NW 04:03:11 29° SW
NOSS 3-2 (C) 3.4 03:57:46 32° SSW 04:00:41 76° ESE 04:07:06 10° NE
USA 161 4.1 03:59:30 10° ESE 04:00:53 14° ENE 04:02:21 10° NE
NOSS 3-2 (A) 3.4 03:58:42 34° SW 04:01:28 80° WNW 04:07:56 10° NNE
Meteor 1-25 Rocket 4.3 04:01:28 34° SW 04:03:40 57° W 04:09:12 10° N
Cosmos 2082 Rocket 3.5 04:01:01 10° NW 04:04:46 22° W 04:04:46 22° W
Cosmos 468 4.4 04:02:00 10° NNW 04:07:20 87° WSW 04:12:37 10° SSE
ADEOS Rocket 4.2 04:01:31 10° N 04:08:22 38° WNW 04:12:01 23° WSW
Cosmos 158 Rocket 4.3 04:03:54 10° N 04:08:57 63° ENE 04:13:51 10° SSE
SL-24 R/B 4.4 04:05:56 10° NNE 04:10:13 72° ESE 04:13:19 22° S
Cosmos 1602 4.0 04:08:20 27° SSE 04:10:19 65° E 04:14:15 10° NNE
Cosmos 2344 3.6 04:05:50 27° SW 04:10:27 78° WNW 04:18:44 10° NNE
ASTRO E2 3.2 04:12:02 37° S 04:12:37 39° SSE 04:16:21 10° E
Cosmos 1536 Rocket 4.4 04:12:43 10° N 04:17:06 52° E 04:21:27 10° SSE
Cosmos 2266 Rocket 4.0 04:13:53 22° SSW 04:18:15 74° W 04:24:40 10° N
CENTAUR R/B 3.8 04:14:12 10° S 04:19:16 31° ESE 04:24:50 10° NE
ATLAS 3B R/B 4.2 04:15:40 14° W 04:20:37 27° NW 04:26:33 10° N
MOZ.5/SAFIR/RUBIN 5/SL-8 3.7 04:17:22 15° S 04:21:22 75° WSW 04:26:08 10° NNW
BREEZE-M DEB (TANK) 3.2 04:17:04 10° NW 04:21:41 57° NNE 04:24:21 10° ESE
ADEOS 4.5 04:21:51 10° N 04:26:30 33° WNW 04:29:01 22° WSW
S3M 4.4 04:20:45 10° NNW 04:26:30 42° W 04:30:19 20° SSW
GENESIS II 4.4 04:26:48 29° SW 04:28:38 60° WNW 04:32:38 10° NNE
Cosmos 1048 Rocket 4.0 04:23:51 10° NNW 04:29:15 80° WSW 04:34:35 10° SSE
Gbstr 26 Del rocket 2.6 04:27:41 30° SW 04:29:25 79° NW 04:33:11 10° NE
Cosmos 1633 3.2 04:29:00 29° WSW 04:30:11 39° W 04:33:37 10° N
CCE 1 Rocket 4.2 04:30:32 26° SW 04:31:21 28° SSW 04:34:44 10° SE
Okean 1 3.8 04:31:17 10° NNW 04:35:07 41° W 04:37:20 21° SSW
Resurs 1-4 Rocket 3.6 04:34:28 10° NNW 04:38:27 22° WNW 04:41:09 15° WSW
Milstar 3 4.5 04:33:11 18° SW 04:40:33 53° SSE 04:57:53 10° E
CZ-4B R/B 4.4 04:37:27 10° NNE 04:42:42 42° E 04:48:00 10° S
Okean 1 Rocket 3.5 04:38:38 10° S 04:43:03 63° E 04:47:28 10° NNE
MOS 1 Rocket 4.3 04:39:04 10° N 04:43:56 36° WNW 04:47:19 17° SW
Meteor 2-4 Rocket 4.1 04:39:57 10° N 04:45:33 65° E 04:50:57 10° SSE
CZ-4B R/B 3.1 04:46:24 10° NNE 04:50:02 59° E 04:53:34 10° S
Meteor 1-13 Rocket 4.1 04:46:08 10° NNW 04:51:38 72° W 04:57:12 10° S
Meteor 1-11 Rocket 3.8 04:46:54 11° SSW 04:52:15 66° W 04:58:02 10° N
CZ-2D R/B 3.9 04:50:46 10° NNW 04:54:02 17° WNW 04:57:14 10° WSW
Cosmos 1441 Rocket 3.5 04:50:50 10° NNW 04:54:44 51° W 04:58:34 10° S
ARIANE 5 R/B 4.4 04:55:43 10° NNW 04:58:22 15° WNW 05:01:02 10° W
Cosmos 1300 Rocket 3.9 04:59:03 11° SSW 05:03:10 49° W 05:07:29 10° N
Molniya-1 3.8 05:06:36 10° S 05:08:09 27° ESE 05:09:35 10° ENE
H-2A R/B 3.1 04:49:49 10° WSW 05:11:35 69° S 05:15:43 10° E
PSLV R/B 4.3 05:14:00 10° W 05:17:08 40° NNW 05:20:18 10° ENE
Okean O Rocket 1.7 05:13:11 10° N 05:17:32 67° WNW 05:21:54 10° SSW
Centaur D AC-25 3.5 05:06:40 10° W 05:17:48 45° SSW 05:21:53 10° ESE
Cosmos 1943 Rocket 3.1 05:14:46 10° SW 05:19:51 34° WNW 05:24:56 10° N
Cosmos 1745 Rocket 4.2 05:15:41 10° S 05:22:02 85° E 05:28:23 10° N
Cosmos 2369 Rocket 3.9 05:19:15 10° W 05:22:56 18° NW 05:26:40 10° NNW
Meteor PRIRODA 4.1 05:22:52 10° NNE 05:26:36 66° ESE 05:30:18 10° S
BREEZE-M R/B 2.1 05:25:34 10° NW 05:29:34 76° SW 05:32:06 10° SE
